This is the latest recevied weather packets stored in our database for station/object WA9AFM. If no packets are shown the sender has not sent any weather packets the latest 10 day(s).
| Time | Temp. | Humidity | Pressure | Rain* | Wind** | Luminosity | Snow |
|---|---|---|---|---|---|---|---|
| 1788036239 | 103° F | 29% | 756.1 mmHg | 0 in | - | - | - |
| 1788035339 | 103° F | 29% | 756.1 mmHg | 0 in | - | - | - |
| 1788034439 | 101° F | 29% | 756.3 mmHg | 0 in | - | - | - |
| 1788033540 | 101° F | 28% | 756.4 mmHg | 0 in | - | - | - |
| 1788032639 | 103° F | 30% | 756.6 mmHg | 0 in | - | - | - |
| 1788031738 | 103° F | 30% | 756.7 mmHg | 0 in | - | - | - |
| 1788030839 | 102° F | 33% | 756.8 mmHg | 0 in | - | - | - |
| 1788029939 | 102° F | 32% | 756.9 mmHg | 0 in | - | - | - |
| 1788029038 | 101° F | 35% | 757 mmHg | 0 in | - | - | - |
| 1788028139 | 100° F | 35% | 757.3 mmHg | 0 in | - | - | - |
| 1788027238 | 100° F | 37% | 757.4 mmHg | 0 in | - | - | - |
| 1788026340 | 100° F | 37% | 757.6 mmHg | 0 in | - | - | - |
| 1788025439 | 99° F | 37% | 757.7 mmHg | 0 in | - | - | - |
| 1788024538 | 98° F | 40% | 757.7 mmHg | 0 in | - | - | - |
| 1788023640 | 98° F | 39% | 757.9 mmHg | 0 in | - | - | - |
| 1788022739 | 96° F | 41% | 758 mmHg | 0 in | - | - | - |
| 1788021838 | 96° F | 42% | 758.2 mmHg | 0 in | - | - | - |
| 1788020939 | 95° F | 43% | 758.2 mmHg | 0 in | - | - | - |
| 1788020038 | 93° F | 47% | 758.2 mmHg | 0 in | - | - | - |
| 1788019140 | 92° F | 48% | 758.4 mmHg | 0 in | - | - | - |
| 1788018239 | 90° F | 49% | 758.3 mmHg | 0 in | - | - | - |
| 1788017338 | 89° F | 54% | 758.3 mmHg | 0 in | - | - | - |
| 1788016440 | 87° F | 55% | 758.5 mmHg | 0 in | - | - | - |
| 1788015539 | 86° F | 57% | 758.5 mmHg | 0 in | - | - | - |
| 1788014638 | 84° F | 59% | 758.5 mmHg | 0 in | - | - | - |
* Rain latest hour (hover to see other rain measurements)
** Current wind speed in m/s (hover to see current wind gust speed)